Location: Boda
(47.1872°N, 9.5454°E)
Time: 07:41:56
(UTC+00:00)

Cosmos 2285 Rocket - Pass Details

Date: 14 May 2021
Orbit: 970 x 999 km, 74.0° (Epoch: 16 June)

Event Time Altitude Azimuth Distance (km) Brightness Sun altitude
Exits shadow 01:55:43 17° 189° (S) 2,272 5.4 -15.3°
Maximum altitude 02:00:45 72° 108° (ESE) 1,048 4.2 -14.7°
Drops below altitude 10° 02:07:10 10° 26° (NNE) 2,777 7.7 -14.0°
Sets 02:09:44 0° 24° (NNE) 3,731 8.6 -13.7°
